This is the latest recevied weather packets stored in our database for station/object HS1AXC-1. If no packets are shown the sender has not sent any weather packets the latest 10 day(s).
| Time | Temp. | Humidity | Pressure | Rain* | Wind** | Luminosity | Snow |
|---|---|---|---|---|---|---|---|
| 1788256742 | 30° C | 99% | 1008 hPa | - | - | 0 W/m² | - |
| 1788256120 | 32.22° C | 91% | 1008 hPa | - | - | 0 W/m² | - |
| 1788255498 | 34.44° C | 64% | 1007 hPa | - | - | 0 W/m² | - |
| 1788254876 | 35° C | 63% | 1007 hPa | - | - | 0 W/m² | - |
| 1788254254 | 35° C | 62% | 1007 hPa | - | - | 0 W/m² | - |
| 1788253632 | 35.56° C | 62% | 1007 hPa | - | - | 0 W/m² | - |
| 1788253010 | 35° C | 64% | 1007 hPa | - | - | 0 W/m² | - |
| 1788252388 | 35° C | 64% | 1007 hPa | - | - | 0 W/m² | - |
| 1788251766 | 35° C | 65% | 1007 hPa | - | - | 0 W/m² | - |
| 1788251144 | 35° C | 65% | 1007 hPa | - | - | 0 W/m² | - |
| 1788250522 | 34.44° C | 65% | 1007 hPa | - | - | 0 W/m² | - |
| 1788249900 | 34.44° C | 66% | 1008 hPa | - | - | 0 W/m² | - |
| 1788249278 | 35° C | 63% | 1008 hPa | - | - | 0 W/m² | - |
| 1788248851 | 35.56° C | 61% | 1008 hPa | - | - | 1 W/m² | - |
| 1788248229 | 36.11° C | 57% | 1008 hPa | - | - | 0 W/m² | - |
| 1788247607 | 36.11° C | 56% | 1008 hPa | - | - | 1 W/m² | - |
| 1788246985 | 36.67° C | 55% | 1008 hPa | - | - | 2 W/m² | - |
| 1788246363 | 35.56° C | 58% | 1008 hPa | - | - | 2 W/m² | - |
| 1788245741 | 36.11° C | 57% | 1008 hPa | - | - | 3 W/m² | - |
| 1788245119 | 35.56° C | 56% | 1009 hPa | - | - | 2 W/m² | - |
| 1788244497 | 35.56° C | 58% | 1009 hPa | - | - | 3 W/m² | - |
| 1788243873 | 35.56° C | 58% | 1009 hPa | - | - | 1 W/m² | - |
| 1788243251 | 35.56° C | 57% | 1009 hPa | - | - | 2 W/m² | - |
| 1788242629 | 35.56° C | 57% | 1009 hPa | - | - | 1 W/m² | - |
| 1788242007 | 35.56° C | 59% | 1009 hPa | - | - | 1 W/m² | - |
* Rain since midnight (hover to see other rain measurements)
** Current wind speed in m/s (hover to see current wind gust speed)